Location: Unspecified
(43.4680°N, 87.1740°E)
Time: 20:27:29
(UTC+00:00)

Cosmos 2151 - Pass Details

Date: 17 April 2021
Orbit: 581 x 600 km, 82.5° (Epoch: 11 May)

Event Time Altitude Azimuth Distance (km) Brightness Sun altitude
Rises 15:40:42 0° 348° (NNW) 2,859 7.4 -26.0°
Reaches altitude 10° 15:42:56 10° 345° (NNW) 1,951 6.4 -26.2°
Enters shadow 15:46:44 57° 297° (WNW) 712 3.5 -26.7°
